Location: Manchester NH
(43.0000°N, 71.5000°W)
Time: 22:36:29
(UTC-05:00)

ISS - Visible Passes

Search period start: 15 December 2017 00:00
Search period end: 25 December 2017 00:00
Orbit: 402 x 406 km, 51.6° (Epoch: 16 December)

Date Brightness Start Highest point End Pass type
(mag) Time Alt. Az. Time Alt. Az. Time Alt. Az.
15 Dec -1.4 18:09:21 10° W 18:12:00 22° SW 18:14:27 11° S visible
16 Dec -2.4 17:16:46 10° WNW 17:19:54 41° SW 17:23:00 10° SSE visible
18 Dec -0.7 17:09:18 10° W 17:11:38 18° SW 17:13:57 10° S visible
